[[{"header":{"parameterUnit":"m.s-1","parameterCategory":1,"la1":30.2991,"la2":30.254,"lo1":-89.0895,"lo2":-89.0444,"dy":0.0017,"dx":0.0017,"nx":28,"ny":28,"refTime":"2025-12-20T03:00:00:Z","depth":0,"parameterNumber":2,"parameterNumberName":"U-component_of_WINDS"},"data":[0,0,0,0,0,0,0,0,0,0,0,0,0,0,0,0,0,0,0,0,0,0,0,0,0,0,0,0,0,0,0,0,0,0,0,0,0,0,0,0,0,0,0,0,0,0,0,0,0,0,0,0,0,0,0,0,0,0,-1.3517,-1.3517,0,-1.3552,-1.3552,-1.3553,-1.3496,-1.3495,-1.3493,-1.3491,-1.3529,-1.3532,-1.3535,0,0,0,0,0,0,0,0,0,0,0,0,0,-1.3404,-1.3406,-1.3517,-1.3517,-1.3518,-1.3552,-1.3552,-1.3553,-1.3497,-1.3494,-1.3492,-1.349,-1.3528,-1.3532,-1.3535,0,0,0,0,0,0,0,0,0,0,0,0,0,-1.3447,-1.3407,-1.3517,-1.3494,-1.3492,-1.3552,-1.3552,-1.3553,-1.3497,-1.3494,-1.3491,-1.3489,-1.3527,-1.3531,-1.3535,-1.362,0,0,-1.3548,-1.355,0,0,0,0,0,0,0,0,-1.3445,-1.3451,-1.3497,-1.3495,-1.3494,-1.3517,-1.3526,-1.3576,-1.3498,-1.3495,-1.3491,-1.3487,-1.3528,-1.3532,-1.3545,-1.3622,-1.3624,-1.3549,-1.3551,-1.3553,-1.3554,0,0,0,0,0,0,0,-1.3442,-1.345,-1.3531,-1.3497,-1.3496,-1.3483,-1.3485,-1.3536,-1.3528,-1.3495,-1.3491,-1.3496,-1.3526,-1.3541,-1.3545,-1.3624,-1.3549,-1.3553,-1.3555,-1.3557,-1.3774,-1.3777,0,0,0,0,0,0,-1.3441,-1.3447,-1.353,-1.3532,-1.3461,-1.3487,-1.349,-1.3512,-1.3527,-1.3526,-1.3499,-1.3493,-1.3535,-1.354,-1.3546,-1.3648,-1.3553,-1.3557,-1.356,-1.3771,-1.3775,-1.3778,0,0,0,0,0,0,-1.3439,-1.3449,-1.3528,-1.3489,-1.3498,-1.3492,-1.3517,-1.3515,-1.3529,-1.3529,-1.3528,-1.3515,-1.3533,-1.354,-1.3602,-1.3648,-1.3559,-1.3563,-1.3767,-1.3772,-1.3777,-1.385,0,0,0,0,0,0,-1.3436,-1.3449,-1.348,-1.349,-1.35,-1.3583,-1.352,-1.3517,-1.3536,-1.353,-1.3544,-1.3544,-1.3531,-1.3596,-1.3607,-1.3652,-1.3566,-1.3763,-1.3769,-1.3775,-1.3844,-1.3857,-1.3868,0,0,0,0,0,-1.3432,-1.35,-1.3482,-1.3492,-1.3539,-1.3586,-1.3592,-1.3575,-1.354,-1.3572,-1.3572,-1.3543,-1.3641,-1.3603,-1.3614,-1.3662,-1.376,-1.3767,-1.3775,-1.3838,-1.3854,-1.3868,0,0,0,0,0,0,-1.3496,-1.35,-1.3481,-1.3553,-1.357,-1.3576,-1.3616,-1.3593,-1.362,-1.3613,-1.3592,-1.3596,-1.3663,-1.3668,-1.3626,-1.3745,-1.3695,-1.3705,-1.3739,-1.3755,-1.3767,-1.3765,-1.357,0,0,0,0,0,-1.3518,-1.3555,-1.3557,-1.3621,-1.363,-1.3622,-1.3642,-1.3628,-1.3644,-1.3651,-1.3655,-1.3673,-1.3708,-1.3731,-1.3763,-1.3844,-1.3847,-1.3882,-1.3894,-1.3904,-1.3914,-1.3958,-1.3974,-1.3802,-1.3802,-1.3802,0,0,-1.3565,-1.3572,-1.3597,-1.3634,-1.3645,-1.3685,-1.3628,-1.3672,-1.3702,-1.3658,-1.3717,-1.3721,-1.3739,-1.3811,-1.3843,-1.3818,-1.3962,-1.3914,-1.3922,-1.3926,-1.3967,-1.3984,-1.3998,-1.3807,-1.3806,-1.3805,0,0,-1.3671,-1.368,-1.3734,-1.3746,-1.3764,-1.3758,-1.3771,-1.3781,-1.3782,-1.3841,-1.3809,-1.3844,-1.3904,-1.3919,-1.3935,-1.4047,-1.4022,-1.4058,-1.4123,-1.4167,-1.418,-1.4192,-1.4234,-1.4249,-1.4067,-1.4067,-1.4068,0,-1.3728,-1.3786,-1.3765,-1.3812,-1.383,-1.3791,-1.3847,-1.386,-1.3887,-1.3901,-1.3872,-1.3948,-1.3957,-1.4033,-1.406,-1.4074,-1.4089,-1.4057,-1.418,-1.4192,-1.4203,-1.4242,-1.4258,-1.4072,-1.4071,-1.4071,-1.407,0,-1.3855,-1.3896,-1.3938,-1.3965,-1.3987,-1.4038,-1.4027,-1.4052,-1.4037,-1.4034,-1.4095,-1.4105,-1.4139,-1.4156,-1.4141,-1.423,-1.4214,-1.4183,-1.4132,-1.4224,-1.4261,-1.4276,-1.4078,-1.4077,-1.4075,-1.4074,0,0,-1.4003,-1.4018,-1.4034,-1.4046,-1.4063,-1.4094,-1.4144,-1.4177,-1.42,-1.422,-1.4262,-1.4314,-1.4286,-1.4303,-1.429,-1.4328,-1.4418,-1.4292,-1.4292,-1.4316,-1.4519,-1.4544,-1.4561,-1.4401,-1.4404,-1.4406,-1.4518,0,-1.4109,-1.4195,-1.4179,-1.4262,-1.4301,-1.4265,-1.4308,-1.4324,-1.4323,-1.4356,-1.4355,-1.4393,-1.4352,-1.4362,-1.4398,-1.44,-1.4459,-1.4391,-1.4442,-1.4444,-1.444,-1.458,-1.4606,-1.4712,-1.4532,-1.4535,-1.4536,0,-1.4245,-1.427,-1.4358,-1.437,-1.4385,-1.4424,-1.4454,-1.4485,-1.4503,-1.4499,-1.452,-1.4499,-1.455,-1.4497,-1.4568,-1.4522,-1.4542,-1.4546,-1.455,-1.4555,-1.4497,-1.4591,-1.4745,-1.4761,-1.4559,-1.4557,-1.4555,0,-1.4346,-1.4402,-1.4462,-1.4473,-1.4488,-1.4517,-1.4524,-1.4538,-1.4559,-1.4585,-1.4599,-1.4631,-1.4648,-1.4674,-1.4663,-1.4625,-1.4737,-1.4683,-1.4737,-1.4737,-1.4763,-1.4762,-1.4923,-1.4773,-1.4773,-1.4773,-1.4772,0,-1.4468,-1.4524,-1.4508,-1.4545,-1.4606,-1.4587,-1.4649,-1.4652,-1.4666,-1.4704,-1.4674,-1.4711,-1.4693,-1.4729,-1.472,-1.4781,-1.4789,-1.4789,-1.4787,-1.4793,-1.4793,-1.4806,-1.4799,-1.4777,-1.4776,-1.4775,-1.4774,0,-1.4592,-1.4583,-1.4646,-1.4655,-1.4658,-1.4704,-1.4711,-1.4747,-1.4743,-1.4792,-1.4802,-1.4798,-1.4838,-1.483,-1.4874,-1.4868,-1.4946,-1.4933,-1.494,-1.4937,-1.4993,-1.4988,-1.517,-1.5193,-1.5027,-1.5028,-1.503,0,-1.4671,-1.4712,-1.4726,-1.4749,-1.4758,-1.4796,-1.4817,-1.48,-1.4824,-1.4847,-1.4881,-1.4918,-1.4948,-1.5014,-1.5016,-1.505,-1.5039,-1.51,-1.5044,-1.5049,-1.5042,-1.504,-1.5045,-1.5112,-1.5114,-1.5115,-1.5117,0,-1.4812,-1.4806,-1.4838,-1.4869,-1.4895,-1.4918,-1.4939,-1.496,-1.4945,-1.4973,-1.5014,-1.5037,-1.5082,-1.5121,-1.5153,-1.5161,-1.5138,-1.5134,-1.5149,-1.5156,-1.5159,-1.516,-1.4972,-1.513,-1.5129,-1.5128,-1.5127,-1.5127,-1.4917,-1.4953,-1.4968,-1.5005,-1.5019,-1.5039,-1.5073,-1.5074,-1.5108,-1.5143,-1.5131,-1.5178,-1.5196,-1.5236,-1.5248,-1.5286,-1.5263,-1.5284,-1.5289,-1.5295,-1.5303,-1.5152,-1.5291,-1.5291,-1.529,-1.529,-1.529,0,-1.5058,-1.5066,-1.51,-1.513,-1.516,-1.5133,-1.5155,-1.5182,-1.5223,-1.5241,-1.5271,-1.5319,-1.5356,-1.536,-1.5396,-1.5425,-1.5415,-1.5435,-1.5434,-1.5437,-1.532,-1.5305,-1.5443,-1.5443,-1.5443,-1.5443,-1.5443,-1.5443,-1.5136,-1.5196,-1.5192,-1.5259,-1.5267,-1.5312,-1.5327,-1.5346,-1.5361,-1.5415,-1.5446,-1.5448,-1.5461,-1.5497,-1.5531,-1.5531,-1.5547,-1.5572,-1.5568,-1.546,-1.5444,-1.543,-1.5415,-1.5575,-1.5575,-1.5681,-1.5682,-1.5683]},{"header":{"parameterUnit":"m.s-1","parameterCategory":1,"la1":30.2991,"la2":30.254,"lo1":-89.0895,"lo2":-89.0444,"dy":0.0017,"dx":0.0017,"nx":28,"ny":28,"refTime":"2025-12-20T03:00:00:Z","depth":0,"parameterNumber":3,"parameterNumberName":"V-component_of_WINDS"},"data":[0,0,0,0,0,0,0,0,0,0,0,0,0,0,0,0,0,0,0,0,0,0,0,0,0,0,0,0,0,0,0,0,0,0,0,0,0,0,0,0,0,0,0,0,0,0,0,0,0,0,0,0,0,0,0,0,0,0,-1.9332,-1.9332,0,-1.9367,-1.9368,-1.9368,-1.9358,-1.9357,-1.9356,-1.9356,-1.939,-1.9391,-1.9393,0,0,0,0,0,0,0,0,0,0,0,0,0,-1.9252,-1.9254,-1.9332,-1.9332,-1.9333,-1.9367,-1.9368,-1.9368,-1.9358,-1.9357,-1.9356,-1.9355,-1.9389,-1.9391,-1.9393,0,0,0,0,0,0,0,0,0,0,0,0,0,-1.9287,-1.9254,-1.9332,-1.9332,-1.9332,-1.9367,-1.9368,-1.9368,-1.9358,-1.9357,-1.9356,-1.9355,-1.9388,-1.9391,-1.9393,-1.9429,0,0,-1.94,-1.9401,0,0,0,0,0,0,0,0,-1.9285,-1.929,-1.9331,-1.9332,-1.9332,-1.9357,-1.9352,-1.9389,-1.9358,-1.9348,-1.9356,-1.9354,-1.938,-1.9383,-1.9392,-1.9431,-1.9432,-1.9401,-1.9402,-1.9403,-1.9404,0,0,0,0,0,0,0,-1.9283,-1.9288,-1.9346,-1.9332,-1.9333,-1.9329,-1.9333,-1.9359,-1.9369,-1.9349,-1.9348,-1.9353,-1.938,-1.9389,-1.9392,-1.9433,-1.94,-1.9403,-1.9404,-1.9405,-1.9503,-1.9504,0,0,0,0,0,0,-1.928,-1.9286,-1.9345,-1.9347,-1.9306,-1.9331,-1.9336,-1.935,-1.9369,-1.9371,-1.9354,-1.9352,-1.9386,-1.9389,-1.9393,-1.9437,-1.9403,-1.9405,-1.9407,-1.9502,-1.9503,-1.9505,0,0,0,0,0,0,-1.9279,-1.9286,-1.9343,-1.9317,-1.9324,-1.9334,-1.935,-1.9352,-1.9361,-1.9373,-1.9374,-1.9362,-1.9385,-1.939,-1.9421,-1.9438,-1.9406,-1.9408,-1.9501,-1.9502,-1.9504,-1.9524,0,0,0,0,0,0,-1.9276,-1.9285,-1.93,-1.9317,-1.9325,-1.9371,-1.9352,-1.9353,-1.9366,-1.9364,-1.9381,-1.9383,-1.9385,-1.9417,-1.9423,-1.944,-1.941,-1.9499,-1.9501,-1.9503,-1.9522,-1.9526,-1.953,0,0,0,0,0,-1.9274,-1.9304,-1.9301,-1.9308,-1.9344,-1.9372,-1.9376,-1.9379,-1.9367,-1.9381,-1.9389,-1.9382,-1.9435,-1.942,-1.9427,-1.9445,-1.9498,-1.9501,-1.9503,-1.952,-1.9525,-1.953,0,0,0,0,0,0,-1.9287,-1.9306,-1.9303,-1.9339,-1.9354,-1.937,-1.9388,-1.9384,-1.9402,-1.94,-1.9401,-1.9405,-1.9436,-1.9444,-1.9427,-1.9481,-1.9465,-1.9469,-1.9475,-1.948,-1.9484,-1.9482,-1.9412,0,0,0,0,0,-1.9295,-1.9317,-1.9331,-1.9362,-1.937,-1.9378,-1.939,-1.9391,-1.9406,-1.9412,-1.9421,-1.9435,-1.9455,-1.9468,-1.9487,-1.9523,-1.9526,-1.9539,-1.9543,-1.9546,-1.9549,-1.9568,-1.9574,-1.9513,-1.9513,-1.9513,0,0,-1.931,-1.9323,-1.9337,-1.9365,-1.9377,-1.9399,-1.9383,-1.9407,-1.9423,-1.9415,-1.9445,-1.9452,-1.9468,-1.9501,-1.9516,-1.9508,-1.9567,-1.9549,-1.9552,-1.9554,-1.9572,-1.9577,-1.9582,-1.9515,-1.9515,-1.9515,0,0,-1.9349,-1.9361,-1.9388,-1.94,-1.9418,-1.9423,-1.943,-1.9446,-1.9451,-1.9481,-1.9475,-1.9493,-1.9528,-1.9539,-1.9549,-1.9592,-1.9586,-1.9598,-1.9619,-1.9637,-1.9642,-1.9646,-1.9661,-1.9667,-1.9601,-1.9601,-1.9601,0,-1.9366,-1.94,-1.9402,-1.9427,-1.9439,-1.9434,-1.946,-1.9471,-1.9494,-1.9502,-1.9493,-1.9536,-1.9546,-1.9582,-1.9592,-1.9601,-1.9607,-1.9596,-1.9641,-1.9646,-1.965,-1.9664,-1.9669,-1.9603,-1.9603,-1.9602,-1.9602,0,-1.9419,-1.9442,-1.9461,-1.9484,-1.9499,-1.9524,-1.953,-1.9544,-1.9543,-1.9549,-1.9579,-1.9591,-1.9612,-1.962,-1.9619,-1.9655,-1.965,-1.9641,-1.9625,-1.9657,-1.967,-1.9675,-1.9605,-1.9604,-1.9604,-1.9603,0,0,-1.9468,-1.9492,-1.9499,-1.9509,-1.9528,-1.9546,-1.957,-1.9592,-1.9603,-1.9619,-1.9639,-1.9668,-1.966,-1.9672,-1.9672,-1.9688,-1.972,-1.9677,-1.9678,-1.9684,-1.976,-1.9766,-1.9772,-1.9717,-1.9718,-1.9719,-1.9758,0,-1.9508,-1.9553,-1.9556,-1.9595,-1.9617,-1.9611,-1.9632,-1.9646,-1.9652,-1.967,-1.9675,-1.9696,-1.9684,-1.9691,-1.9707,-1.9713,-1.9735,-1.971,-1.9734,-1.9735,-1.9731,-1.9779,-1.9786,-1.9823,-1.9764,-1.9764,-1.9765,0,-1.9562,-1.958,-1.9622,-1.9637,-1.9646,-1.9666,-1.9685,-1.9703,-1.9717,-1.972,-1.9733,-1.9731,-1.9755,-1.9738,-1.977,-1.9753,-1.9763,-1.9768,-1.9769,-1.9771,-1.9752,-1.9782,-1.9835,-1.9841,-1.9773,-1.9773,-1.9772,0,-1.9593,-1.9627,-1.9657,-1.9666,-1.9685,-1.9698,-1.9707,-1.9721,-1.9733,-1.9749,-1.9757,-1.9776,-1.9786,-1.98,-1.9803,-1.979,-1.9835,-1.9819,-1.9838,-1.9838,-1.9847,-1.9847,-1.9902,-1.9854,-1.9854,-1.9854,-1.9854,0,-1.9637,-1.9663,-1.9671,-1.9689,-1.9718,-1.972,-1.9748,-1.9755,-1.9768,-1.9786,-1.9782,-1.98,-1.9802,-1.982,-1.9822,-1.9848,-1.9853,-1.9855,-1.9855,-1.9856,-1.9855,-1.9862,-1.9859,-1.9856,-1.9855,-1.9855,-1.9855,0,-1.9677,-1.9684,-1.9715,-1.9731,-1.9735,-1.9756,-1.9768,-1.9785,-1.979,-1.9814,-1.9819,-1.9827,-1.9848,-1.9852,-1.9876,-1.9877,-1.9909,-1.9906,-1.9904,-1.9904,-1.9922,-1.992,-1.9984,-1.9992,-1.9939,-1.994,-1.994,0,-1.9705,-1.9725,-1.9743,-1.9756,-1.9765,-1.9785,-1.9798,-1.9801,-1.9814,-1.9832,-1.9846,-1.9867,-1.9883,-1.9916,-1.9923,-1.9941,-1.9939,-1.996,-1.9942,-1.9941,-1.9939,-1.9938,-1.9939,-1.9964,-1.9964,-1.9965,-1.9965,0,-1.9755,-1.9757,-1.9776,-1.9796,-1.9811,-1.9827,-1.9841,-1.9852,-1.9856,-1.9871,-1.9893,-1.9905,-1.993,-1.995,-1.9968,-1.9975,-1.9971,-1.9971,-1.9976,-1.9976,-1.9974,-1.9975,-1.9913,-1.9969,-1.9969,-1.9968,-1.9968,-1.9968,-1.9789,-1.9806,-1.9822,-1.9843,-1.9854,-1.9868,-1.9884,-1.9892,-1.991,-1.9931,-1.9931,-1.9954,-1.9967,-1.9991,-2.0,-2.0017,-2.001,-2.0018,-2.002,-2.0022,-2.0024,-1.9971,-2.002,-2.002,-2.002,-2.002,-2.002,0,-1.9838,-1.9847,-1.9867,-1.9888,-1.9904,-1.9899,-1.9915,-1.9929,-1.9949,-1.9962,-1.9979,-2.0003,-2.0022,-2.003,-2.0049,-2.0061,-2.0059,-2.0066,-2.0065,-2.0067,-2.0029,-2.0022,-2.0067,-2.0067,-2.0067,-2.0067,-2.0067,-2.0067,-1.9865,-1.9894,-1.9898,-1.9932,-1.9941,-1.9964,-1.9973,-1.9986,-1.9996,-2.0024,-2.004,-2.0045,-2.0056,-2.0076,-2.0092,-2.0094,-2.0101,-2.0109,-2.0109,-2.0074,-2.0069,-2.0065,-2.0059,-2.011,-2.011,-2.0146,-2.0146,-2.0146]}]]